Regional Weather Roundup
Issued by NWS

Home | Current Version | Previous Version | Graphics & Text | Print | Product List | Glossary On
Versions: 1 2 3 4 5 6 7 8 9 10 11 12 13 14 15 16 17 18 19 20 21 22 23 24 25 26 27 28 29 30 31 32 33 34 35 36 37 38 39 40 41 42 43 44 45 46
000
ASUS45 KTFX 290010
RWRMT
MONTANA REGIONAL WEATHER ROUNDUP
NATIONAL WEATHER SERVICE GREAT FALLS MT
600 PM MDT THU MAY 28 2015

NOTE: "FAIR" INDICATES FEW OR NO CLOUDS BELOW 12000 FEET WITH NO
SIGNIFICANT WEATHER AND/OR OBSTRUCTIONS TO VISIBILITY.

MTZ001>007-043-290100-
WEST OF THE DIVIDE

CITY           SKY/WX    TMP DP  RH WIND       PRES   REMARKS
KALISPELL      MOCLDY    71  42  35 NE18G26   30.13R
MISSOULA       LGT RAIN  63  53  70 N8        30.15S
BUTTE          CLOUDY    49  43  80 W10       30.22R
MULLAN PASS    CLOUDY    53  45  74 CALM      30.22R
DEER LODGE       N/A     55  46  71 N5        30.25R
EUREKA           N/A     68  43  40 NE9       30.15R
HAMILTON         N/A     66  45  45 CALM      30.15S
LIBBY            N/A     61  54  77 W8        30.13R
PLAINS           N/A     70  58  65 E1        30.10S
RONAN            N/A     64  51  62 SE5       30.17R
THOMPSON FALLS   N/A     71  50  47 N6        30.13R
$$

MTZ008-052>055-290100-
SOUTHWEST MONTANA

CITY           SKY/WX    TMP DP  RH WIND       PRES   REMARKS
BOZEMAN        HVY RAIN  50  46  86 E9        30.20R FOG
DILLON         PTSUNNY   54  47  77 SW3       30.19S
W YELLOWSTONE  CLOUDY    50  39  66 NW3       30.20R
THREE FORKS      N/A     59  54  83 N9        30.16R
$$

MTZ009-010-012-014-046-048-049-054-290100-
EAST SLOPES AND CENTRAL MONTANA

CITY           SKY/WX    TMP DP  RH WIND       PRES   REMARKS
CUT BANK       CLOUDY    46  44  93 N20       30.29R FOG
GREAT FALLS    LGT RAIN  50  48  93 N14       30.22R
HELENA         CLOUDY    58  47  66 N13       30.20S
CONRAD           N/A     48  48 100 NW15      30.27R
$$

MTZ011-013-016-021-045-047-050-051-290100-
NORTH CENTRAL MONTANA

CITY           SKY/WX    TMP DP  RH WIND       PRES   REMARKS
HAVRE          CLOUDY    54  46  74 N14       30.20R
LEWISTOWN      LGT RAIN  55  50  83 NW10G17   30.17R
N BAR RANCH    RAIN      52  50  93 NW16G23   30.17S
CHINOOK          N/A     55  46  71 N7        30.20R
FORT BENTON      N/A     55  50  82 NW13      30.21R
$$

MTZ017>020-022>027-061-062-290100-
NORTHEAST MONTANA

CITY           SKY/WX    TMP DP  RH WIND       PRES   REMARKS
GLASGOW        PTSUNNY   60  53  77 NE18G24   30.06R
JORDAN           N/A     64  49  57 N28G41    30.04R
SIDNEY         MOSUNNY   70  48  46 N22G36    29.94R
WOLF POINT     LGT RAIN  61  54  77 N21G29    30.03R
MALTA            N/A     57  47  69 N20       30.08R
PLENTYWOOD       N/A     59  50  72 N24G32    30.00R
POPLAR           N/A     61  55  82 N20G25    30.01R
SCOBEY           N/A     58  45  62 S25       30.04R
$$

MTZ028>42-056>058-290100-
SOUTHCENTRAL AND SOUTHEAST MONTANA

CITY           SKY/WX    TMP DP  RH WIND       PRES   REMARKS
BAKER          PTSUNNY   71  50  47 NW16      29.93R
BILLINGS       TSTM      57  49  74 N18       30.11R
LIVINGSTON     LGT RAIN  52  49  89 SW15      30.18R FOG
MILES CITY     CLOUDY    73  49  42 N17       29.95R
BIG TIMBER       N/A     52  48  87 N12       30.19R
EKALAKA          N/A     68  49  50 W6        29.94F
LAUREL           N/A     56  47  71 W15       30.09R
ROUNDUP          N/A     58  48  69 NW18      30.00R
$$

REGIONAL REPORTS...DAKOTAS

CITY           SKY/WX    TMP DP  RH WIND       PRES   REMARKS
WILLISTON      LGT RAIN  62  54  74 N21G36    29.95R
MINOT          PTSUNNY   69  55  60 NW13      29.86S
DICKINSON      MOSUNNY   70  53  54 NE9       29.87S
BEACH          MOCLDY    70  54  56 N15       29.93R
CROSBY         FAIR      61  61 100 N18G25    29.98R
WATFORD CITY   MOCLDY    68  55  64 N12       29.90R
BISMARCK       CLOUDY    74  54  49 N14       29.82S
GRAND FORKS    LGT RAIN  65  62  90 W3        29.74F
FARGO          LGT RAIN  65  61  87 S12       29.78F
BUFFALO SD       N/A     61  51  70 NW13G21   29.88R
RAPID CITY     RAIN      57  54  89 N9        29.94F
$$

REGIONAL REPORTS...WYOMING/IDAHO/WASHINGTON

CITY           SKY/WX    TMP DP  RH WIND       PRES   REMARKS
GILLETTE       CLOUDY    58  48  69 NW20      30.04R
SHERIDAN       CLOUDY    59  45  59 N16       30.07S
BUFFALO WY     CLOUDY    58  46  64 N22       30.08R
CODY           CLOUDY    55  46  71 N18G30    30.12R
YELLOWSTONE LA   N/A     42  39  89 MISG      30.24F
IDAHO FALLS    PTSUNNY   63  44  50 VRB5      30.14R
SALMON         PTSUNNY   64  43  45 E10       30.12R
BOISE          SUNNY     78  43  28 NW9G18    30.02F
SPOKANE        PTSUNNY   77  46  33 W6        30.04F
$$

REGIONAL REPORTS...ALBERTA

CITY           SKY/WX    TMP DP  RH WIND       PRES   REMARKS
EDMONTON       SUNNY     57  23  26 NE12      30.29F
CALGARY        CLOUDY    52  41  66 E5        30.30S
LETHBRIDGE     CLOUDY    52  45  76 NE8       30.30S
MEDICINE HAT   MOSUNNY   57  39  51 N10G17    30.25S
$$

REGIONAL REPORTS...SASKATCHEWAN

CITY           SKY/WX    TMP DP  RH WIND       PRES   REMARKS
SWIFT CURRENT  SUNNY     55  34  44 N21G28    30.16S
REGINA         PTSUNNY   52  39  62 N18G29    30.12R
SASKATOON      MOSUNNY   55  28  35 N21G28    30.22R
$$



USA.gov is the U.S. government's official web portal to all federal, state and local government web resources and services.